| time (UTC) | temp F | wind direction | speed knots | gust knots | rain 1hr in | rain 24hr in | rain mn in | humidity % | barometer mb |
| 20260509201605 | 79 | 0.0 | 0.0 | 0.00 | 0.00 | 0.00 | 49 | 1028.7 | |
| 20260509194605 | 80 | 0.0 | 0.0 | 0.00 | 0.00 | 0.00 | 46 | 1028.5 | |
| 20260509191604 | 80 | 0.0 | 0.0 | 0.00 | 0.00 | 0.00 | 47 | 1028.0 | |
| 20260509184604 | 80 | 0.0 | 0.0 | 0.00 | 0.00 | 0.00 | 47 | 1028.1 | |
| 20260509181605 | 80 | 0.0 | 0.0 | 0.00 | 0.00 | 0.00 | 49 | 1028.3 | |
| 20260509174605 | 79 | 0.0 | 0.0 | 0.00 | 0.00 | 0.00 | 50 | 1028.4 | |
| 20260509171604 | 79 | 0.0 | 0.0 | 0.00 | 0.00 | 0.00 | 50 | 1028.7 | |
| 20260509164604 | 79 | 0.0 | 0.0 | 0.00 | 0.00 | 0.00 | 48 | 1028.8 | |
| 20260509161605 | 78 | 0.0 | 0.0 | 0.00 | 0.00 | 0.00 | 50 | 1029.0 | |
| 20260509154605 | 78 | 0.0 | 0.0 | 0.00 | 0.00 | 0.00 | 51 | 1029.1 | |
| 20260509151604 | 78 | 0.0 | 0.0 | 0.00 | 0.00 | 0.00 | 51 | 1029.5 | |
| 20260509144604 | 77 | 0.0 | 0.0 | 0.00 | 0.00 | 0.00 | 55 | 1030.2 | |
| 20260509141604 | 76 | 0.0 | 0.0 | 0.00 | 0.00 | 0.00 | 55 | 1030.6 | |
| 20260509134604 | 76 | 0.0 | 0.0 | 0.00 | 0.00 | 0.00 | 56 | 1030.7 | |
| 20260509131605 | 75 | 0.0 | 0.0 | 0.00 | 0.00 | 0.00 | 56 | 1030.9 | |
| 20260509124604 | 76 | 0.0 | 0.0 | 0.00 | 0.00 | 0.00 | 55 | 1031.0 | |
| 20260509121604 | 75 | 0.0 | 0.0 | 0.00 | 0.00 | 0.00 | 55 | 1030.4 | |
| 20260509114604 | 74 | 0.0 | 0.0 | 0.00 | 0.00 | 0.00 | 56 | 1030.0 | |
| 20260509111604 | 75 | 0.0 | 0.0 | 0.00 | 0.00 | 0.00 | 55 | 1029.8 | |
| 20260509104604 | 75 | 0.0 | 0.0 | 0.00 | 0.00 | 0.00 | 55 | 1028.9 | |
| 20260509101604 | 74 | 0.0 | 0.0 | 0.00 | 0.00 | 0.00 | 56 | 1028.7 | |
| 20260509094604 | 75 | 0.0 | 0.0 | 0.00 | 0.00 | 0.00 | 55 | 1027.7 | |
| 20260509091604 | 74 | 0.0 | 0.0 | 0.00 | 0.00 | 0.00 | 56 | 1027.6 | |
| 20260509084604 | 74 | 0.0 | 0.0 | 0.00 | 0.00 | 0.00 | 56 | 1027.1 | |
| 20260509081604 | 73 | 0.0 | 0.0 | 0.00 | 0.00 | 0.00 | 57 | 1026.6 | |
| 20260509074604 | 73 | 0.0 | 0.0 | 0.00 | 0.00 | 0.00 | 57 | 1026.7 | |
| 20260509071604 | 73 | 0.0 | 0.0 | 0.00 | 0.00 | 0.00 | 57 | 1026.8 | |
| 20260509064604 | 73 | 0.0 | 0.0 | 0.00 | 0.00 | 0.00 | 58 | 1027.0 | |
| 20260509061604 | 73 | 0.0 | 0.0 | 0.00 | 0.00 | 0.00 | 58 | 1027.0 | |
| 20260509054604 | 74 | 0.0 | 0.0 | 0.00 | 0.00 | 0.00 | 57 | 1027.1 | |
| 20260509051604 | 74 | 0.0 | 0.0 | 0.00 | 0.00 | 0.00 | 57 | 1027.2 | |
| 20260509044604 | 74 | 0.0 | 0.0 | 0.00 | 0.00 | 0.00 | 57 | 1027.3 | |
| 20260509041604 | 74 | 0.0 | 0.0 | 0.00 | 0.00 | 0.00 | 57 | 1027.3 | |
| 20260509034604 | 74 | 0.0 | 0.0 | 0.00 | 0.00 | 0.00 | 58 | 1027.4 | |
| 20260509031604 | 74 | 0.0 | 0.0 | 0.00 | 0.00 | 0.00 | 57 | 1027.3 | |
| 20260509024604 | 75 | 0.0 | 0.0 | 0.00 | 0.00 | 0.00 | 56 | 1027.3 | |
| 20260509021604 | 75 | 0.0 | 0.0 | 0.00 | 0.00 | 0.00 | 54 | 1027.3 | |
| 20260509014604 | 77 | 0.0 | 0.0 | 0.00 | 0.00 | 0.00 | 55 | 1027.4 | |
| 20260509011604 | 78 | 0.0 | 0.0 | 0.00 | 0.00 | 0.00 | 54 | 1027.2 | |
| 20260509004604 | 78 | 0.0 | 0.0 | 0.00 | 0.00 | 0.00 | 53 | 1027.4 | |
| 20260509001604 | 78 | 0.0 | 0.0 | 0.00 | 0.00 | 0.00 | 54 | 1027.2 | |
| 20260508234605 | 78 | 0.0 | 0.0 | 0.00 | 0.00 | 0.00 | 54 | 1026.9 | |
| 20260508231604 | 78 | 0.0 | 0.0 | 0.00 | 0.00 | 0.00 | 56 | 1027.3 | |
| 20260508224604 | 78 | 0.0 | 0.0 | 0.00 | 0.00 | 0.00 | 56 | 1027.3 | |
| 20260508221604 | 78 | 0.0 | 0.0 | 0.00 | 0.00 | 0.00 | 55 | 1027.1 | |
| 20260508214604 | 78 | 0.0 | 0.0 | 0.00 | 0.00 | 0.00 | 55 | 1027.1 | |
| 20260508211604 | 78 | 0.0 | 0.0 | 0.00 | 0.00 | 0.00 | 54 | 1026.8 | |
| 20260508204604 | 78 | 0.0 | 0.0 | 0.00 | 0.00 | 0.00 | 54 | 1026.6 |